Simultaneous Nadir Overpasses (SNOs) Predictions

Prediction of SNOs between METOP-A and TERRA Satellite Orbit:

Table of predicted SNOs for the next 14.0 days since TLE Epoch: 3/28/2020
Index Date (METOP-A) Time (METOP-A) Lat,Lon (METOP-A) SZA (METOP-A ) Date (TERRA) Time (TERRA) Lat,Lon (TERRA) SZA (TERRA ) Distance(km) Time Diff (sec)
1 03/28/2020 17:47:38 -81.43, 142.63 99.08 03/28/2020 17:48:31 -81.43, 142.74 99.04 1.94 53
2 03/28/2020 18:38:18 81.42, -49.61 80.96 03/28/2020 18:37:57 81.43, -49.51 80.97 2.11 21
3 03/31/2020 13:22:01 -81.43,-151.07 100.15 03/31/2020 13:22:45 -81.42,-150.94 100.12 2.50 44
4 03/31/2020 14:12:41 81.42, 16.65 79.88 03/31/2020 14:12:11 81.43, 16.78 79.88 2.13 30
5 04/03/2020 08:56:23 -81.43, -84.39 101.17 04/03/2020 08:56:58 -81.43, -84.28 101.14 1.92 35
6 04/03/2020 09:47:03 81.43, 82.91 78.82 04/03/2020 09:46:24 81.42, 83.02 78.80 2.24 39
7 04/06/2020 04:30:45 -81.43, -18.11 102.23 04/06/2020 04:31:11 -81.42, -18.06 102.21 1.06 26
8 04/06/2020 05:21:25 81.42, 149.54 77.80 04/06/2020 05:20:37 81.42, 149.60 77.78 1.04 48
9 04/09/2020 00:05:07 -81.42, 48.55 103.22 04/09/2020 00:05:24 -81.43, 48.50 103.22 1.08 17




NCC Satellite Simultaneous Nadir Overpasses (SNOs) Prediction Service
